TimeCDT,TemperatureF,Dew PointF,Humidity,Sea Level PressureIn,VisibilityMPH,Wind Direction,Wind SpeedMPH,Gust SpeedMPH,PrecipitationIn,Events,Conditions,WindDirDegrees,DateUTC
12:15 AM,68.0,55.4,64,29.98,10.0,Calm,Calm,-,N/A,,Scattered Clouds,0,2013-07-25 05:15:00
12:35 AM,69.8,55.4,60,29.98,10.0,SSW,5.8,-,N/A,,Clear,200,2013-07-25 05:35:00
12:55 AM,69.8,53.6,56,29.97,10.0,South,3.5,-,N/A,,Scattered Clouds,190,2013-07-25 05:55:00
1:15 AM,69.8,55.4,60,29.99,10.0,WSW,6.9,-,0.01,Rain-Thunderstorm,Light Thunderstorms and Rain,250,2013-07-25 06:15:00
1:35 AM,68.0,59.0,73,30.01,7.0,West,4.6,-,0.13,Rain-Thunderstorm,Heavy Thunderstorms and Rain,270,2013-07-25 06:35:00
1:55 AM,66.2,60.8,83,29.98,10.0,SSE,4.6,-,0.19,Rain-Thunderstorm,Light Thunderstorms and Rain,150,2013-07-25 06:55:00
2:15 AM,66.2,60.8,83,29.98,10.0,Calm,Calm,-,N/A,,Scattered Clouds,0,2013-07-25 07:15:00
2:35 AM,64.4,60.8,88,29.97,10.0,SSE,5.8,-,N/A,,Clear,160,2013-07-25 07:35:00
2:55 AM,64.4,60.8,88,29.97,10.0,South,4.6,-,N/A,,Clear,180,2013-07-25 07:55:00
3:15 AM,64.4,60.8,88,29.97,10.0,Calm,Calm,-,N/A,,Clear,0,2013-07-25 08:15:00
3:35 AM,66.2,60.8,83,29.97,10.0,SW,4.6,-,N/A,Thunderstorm,Clear,230,2013-07-25 08:35:00
3:55 AM,66.2,60.8,83,29.97,10.0,SW,4.6,-,N/A,,Clear,230,2013-07-25 08:55:00
4:15 AM,64.4,60.8,88,29.97,10.0,WSW,3.5,-,N/A,,Clear,250,2013-07-25 09:15:00
4:35 AM,66.2,60.8,83,29.97,10.0,SW,3.5,-,N/A,,Mostly Cloudy,230,2013-07-25 09:35:00
4:55 AM,64.4,60.8,88,29.97,10.0,SW,3.5,-,N/A,,Mostly Cloudy,230,2013-07-25 09:55:00
5:15 AM,64.4,60.8,88,29.98,10.0,WSW,5.8,-,N/A,,Scattered Clouds,250,2013-07-25 10:15:00
5:35 AM,66.2,60.8,83,29.97,10.0,West,3.5,-,N/A,,Scattered Clouds,260,2013-07-25 10:35:00
5:55 AM,64.4,60.8,88,29.97,10.0,WSW,3.5,-,N/A,,Clear,250,2013-07-25 10:55:00
6:15 AM,66.2,62.6,88,29.96,10.0,Calm,Calm,-,N/A,,Clear,0,2013-07-25 11:15:00
6:35 AM,66.2,60.8,83,29.97,10.0,WSW,3.5,-,N/A,,Clear,250,2013-07-25 11:35:00
6:55 AM,66.2,62.6,88,29.96,10.0,Calm,Calm,-,N/A,,Clear,0,2013-07-25 11:55:00
7:15 AM,66.2,62.6,88,29.97,10.0,WSW,4.6,-,N/A,,Clear,240,2013-07-25 12:15:00
7:35 AM,68.0,64.4,88,29.98,10.0,West,5.8,-,N/A,,Clear,270,2013-07-25 12:35:00
7:55 AM,69.8,64.4,83,29.97,10.0,Calm,Calm,-,N/A,,Clear,0,2013-07-25 12:55:00
8:15 AM,71.6,64.4,78,29.97,10.0,WSW,5.8,-,N/A,,Clear,250,2013-07-25 13:15:00
8:35 AM,71.6,64.4,78,29.98,10.0,West,6.9,-,N/A,,Clear,270,2013-07-25 13:35:00
8:55 AM,73.4,64.4,73,29.98,10.0,WNW,6.9,-,N/A,,Clear,300,2013-07-25 13:55:00
9:15 AM,73.4,64.4,73,29.98,10.0,WNW,6.9,-,N/A,,Clear,290,2013-07-25 14:15:00
9:35 AM,73.4,64.4,73,29.98,10.0,West,8.1,-,N/A,,Clear,270,2013-07-25 14:35:00
9:55 AM,73.4,64.4,73,29.98,10.0,West,4.6,-,N/A,,Clear,260,2013-07-25 14:55:00
10:15 AM,73.4,64.4,73,29.98,10.0,WSW,4.6,-,N/A,,Clear,250,2013-07-25 15:15:00
10:35 AM,73.4,64.4,73,29.98,10.0,WNW,4.6,-,N/A,,Clear,290,2013-07-25 15:35:00
10:55 AM,73.4,64.4,73,30.01,10.0,West,8.1,-,N/A,,Clear,280,2013-07-25 15:55:00
11:15 AM,73.4,66.2,78,30.01,10.0,West,5.8,-,N/A,Rain,Light Rain,280,2013-07-25 16:15:00
11:35 AM,73.4,66.2,78,30.02,10.0,WNW,9.2,-,N/A,,Clear,300,2013-07-25 16:35:00
11:55 AM,75.2,64.4,69,30.02,10.0,WNW,10.4,-,N/A,,Clear,290,2013-07-25 16:55:00
12:15 PM,75.2,59.0,57,30.02,10.0,WNW,11.5,-,N/A,,Clear,300,2013-07-25 17:15:00
12:35 PM,73.4,60.8,65,30.02,10.0,WNW,9.2,-,N/A,Rain-Thunderstorm,Light Thunderstorms and Rain,290,2013-07-25 17:35:00
12:55 PM,73.4,60.8,65,30.02,10.0,NNW,10.4,-,N/A,Rain,Light Rain,330,2013-07-25 17:55:00
1:15 PM,73.4,59.0,61,30.02,10.0,NW,8.1,-,N/A,,Clear,310,2013-07-25 18:15:00
1:36 PM,71.6,59.0,64,30.02,10.0,NNW,17.3,-,N/A,Rain,Light Rain,340,2013-07-25 18:36:00
1:55 PM,71.6,57.2,60,30.01,10.0,North,12.7,-,N/A,,Clear,350,2013-07-25 18:55:00
2:15 PM,73.4,57.2,57,30.00,10.0,North,4.6,-,N/A,,Clear,360,2013-07-25 19:15:00
2:35 PM,75.2,57.2,53,29.98,10.0,North,9.2,-,N/A,,Clear,10,2013-07-25 19:35:00
2:55 PM,75.2,57.2,53,29.97,10.0,North,4.6,-,N/A,,Clear,10,2013-07-25 19:55:00
3:15 PM,75.2,57.2,53,29.97,10.0,North,4.6,-,N/A,,Clear,350,2013-07-25 20:15:00
3:35 PM,77.0,59.0,54,29.98,10.0,NW,5.8,-,N/A,,Clear,310,2013-07-25 20:35:00
3:55 PM,77.0,59.0,54,29.97,10.0,WNW,5.8,-,N/A,,Clear,290,2013-07-25 20:55:00
4:15 PM,78.8,60.8,54,29.97,10.0,West,6.9,-,N/A,,Clear,270,2013-07-25 21:15:00
4:35 PM,78.8,59.0,51,29.96,10.0,WNW,8.1,-,N/A,,Clear,300,2013-07-25 21:35:00
4:55 PM,78.8,60.8,54,29.96,10.0,NW,8.1,-,N/A,,Clear,310,2013-07-25 21:55:00
5:15 PM,78.8,60.8,54,29.96,10.0,West,9.2,-,N/A,,Clear,280,2013-07-25 22:15:00
5:35 PM,78.8,60.8,54,29.96,10.0,WNW,9.2,-,N/A,,Clear,290,2013-07-25 22:35:00
5:56 PM,78.8,60.8,54,29.95,10.0,West,9.2,-,N/A,,Clear,270,2013-07-25 22:56:00
6:15 PM,78.8,60.8,54,29.95,10.0,West,9.2,-,N/A,,Clear,270,2013-07-25 23:15:00
6:35 PM,78.8,62.6,57,29.95,10.0,West,6.9,-,N/A,,Clear,270,2013-07-25 23:35:00
6:56 PM,78.8,59.0,51,29.94,10.0,WNW,9.2,-,N/A,,Clear,290,2013-07-25 23:56:00
7:15 PM,78.8,60.8,54,29.94,10.0,West,5.8,-,N/A,,Clear,280,2013-07-26 00:15:00
7:35 PM,78.8,60.8,54,29.94,10.0,West,4.6,-,N/A,,Clear,270,2013-07-26 00:35:00
7:54 PM,78.8,60.8,54,29.95,10.0,West,5.8,-,N/A,,Clear,270,2013-07-26 00:54:00
8:15 PM,77.0,62.6,61,29.95,10.0,West,4.6,-,N/A,,Clear,270,2013-07-26 01:15:00
8:35 PM,73.4,64.4,73,29.95,10.0,WSW,4.6,-,N/A,,Clear,250,2013-07-26 01:35:00
8:55 PM,73.4,64.4,73,29.95,10.0,SW,3.5,-,N/A,,Clear,230,2013-07-26 01:55:00
9:15 PM,73.4,64.4,73,29.95,10.0,SW,6.9,-,N/A,,Scattered Clouds,220,2013-07-26 02:15:00
9:35 PM,73.4,62.6,69,29.95,10.0,SW,6.9,-,N/A,,Scattered Clouds,230,2013-07-26 02:35:00
9:55 PM,71.6,64.4,78,29.96,10.0,SW,4.6,-,N/A,,Mostly Cloudy,230,2013-07-26 02:55:00
10:15 PM,71.6,62.6,73,29.97,10.0,North,5.8,-,N/A,,Mostly Cloudy,350,2013-07-26 03:15:00
10:35 PM,71.6,62.6,73,29.98,10.0,WNW,4.6,-,N/A,,Scattered Clouds,300,2013-07-26 03:35:00
10:55 PM,69.8,62.6,78,29.98,10.0,West,4.6,-,N/A,,Clear,260,2013-07-26 03:55:00
11:15 PM,69.8,62.6,78,29.98,10.0,West,4.6,-,N/A,,Scattered Clouds,270,2013-07-26 04:15:00
11:35 PM,69.8,59.0,68,29.98,10.0,NW,8.1,-,N/A,,Mostly Cloudy,310,2013-07-26 04:35:00
11:55 PM,69.8,57.2,64,29.98,10.0,NW,6.9,-,N/A,,Mostly Cloudy,310,2013-07-26 04:55:00